Find Ekran

NORAD ID: 13878 Int'l Des: 1983-016 Owner: MSVYAZ Country: SU operational
HEOCIRCULAR

Live-Position

3D-Globus wird geladen...

Über Ekran

Beschreibung wird geladen...

Nächste Überflüge

Passes for default location (London). Set your location on the main map for personalized predictions.

Höhenverlauf

Loading altitude history...

Zweizeiliger Elementsatz

1 13878U 83016A 26131.84955949 -.00000133 00000-0 00000+0 0 9998
2 13878 10.4812 310.7018 0032640 26.1491 330.6818 0.95031246118822
Epoch: 11. Mai 2026 • Age: 16 hours

Aktueller Status

Höhe 37459.2 km
Geschwindigkeit 3.01 km/s
Subsatellitenpunkt -7.27°S, 118.92°E
Startdatum 12. März 1983
Alter 43.1 years
Typ other

Technische Details

Klassifizierung Payload
Masse 2000.00 kg
Trockenmasse 1850.00 kg
Gesamtmasse 2000.00 kg
Länge 5.50 m
Durchmesser 2.50 m
Spannweite 9.00 m
Form Cyl + 2 Pan + Plate
Hersteller NPOPM
Bus-Typ Ekran
Phasenstatus In Orbit
Besitzer/Staat MSVYAZ/SU

Most Searched